Time,TemperatureF,DewpointF,PressureIn,WindDirection,WindDirectionDegrees,WindSpeedMPH,WindSpeedGustMPH,Humidity,HourlyPrecipIn,Conditions,Clouds,dailyrainin,SoftwareType,DateUTC
2013-07-04 00:35:00,74.0,40.0,-100.00,WSW,254,15.0,21.0,28,0.00,,,-99.99,,2013-07-04 00:35:00,
2013-07-04 00:45:00,74.0,39.0,-100.00,West,260,16.0,22.0,28,0.00,,,-99.99,,2013-07-04 00:45:00,
2013-07-04 00:55:00,74.0,40.0,-100.00,West,260,14.0,18.0,30,0.00,,,-99.99,,2013-07-04 00:55:00,
2013-07-04 01:15:00,73.0,39.0,-100.00,West,270,14.0,19.0,29,0.00,,,-99.99,,2013-07-04 01:15:00,
2013-07-04 02:12:00,66.0,41.0,-100.00,NW,320,4.0,11.0,40,0.00,,,-99.99,,2013-07-04 02:12:00,
2013-07-04 02:38:00,64.0,45.0,-100.00,SSW,199,5.0,9.0,51,0.00,,,-99.99,,2013-07-04 02:38:00,
2013-07-04 02:45:00,65.0,43.0,-100.00,WSW,254,6.0,10.0,45,0.00,,,-99.99,,2013-07-04 02:45:00,
2013-07-04 03:45:00,63.0,42.0,-100.00,WSW,246,17.0,26.0,45,0.00,,,-99.99,,2013-07-04 03:45:00,
2013-07-04 04:02:00,63.0,41.0,-100.00,SW,232,12.0,15.0,44,0.00,,,-99.99,,2013-07-04 04:02:00,
2013-07-04 04:11:00,62.0,41.0,-100.00,SW,222,9.0,14.0,45,0.00,,,-99.99,,2013-07-04 04:11:00,
2013-07-04 04:33:00,61.0,41.0,-100.00,SW,223,4.0,9.0,47,0.00,,,-99.99,,2013-07-04 04:33:00,
2013-07-04 04:43:00,61.0,40.0,-100.00,SW,219,4.0,6.0,47,0.00,,,-99.99,,2013-07-04 04:43:00,
2013-07-04 05:43:00,62.0,41.0,-100.00,SW,236,5.0,7.0,45,0.00,,,-99.99,,2013-07-04 05:43:00,
2013-07-04 06:11:00,62.0,41.0,-100.00,SW,230,7.0,10.0,46,0.00,,,-99.99,,2013-07-04 06:11:00,
2013-07-04 06:43:00,59.0,41.0,-100.00,SSW,213,7.0,11.0,50,0.00,,,-99.99,,2013-07-04 06:43:00,
2013-07-04 07:02:00,60.0,41.0,-100.00,SW,219,11.0,14.0,49,0.00,,,-99.99,,2013-07-04 07:02:00,
2013-07-04 07:12:00,60.0,40.0,-100.00,SW,217,10.0,13.0,48,0.00,,,-99.99,,2013-07-04 07:12:00,
2013-07-04 07:43:00,60.0,40.0,-100.00,SSW,208,8.0,10.0,48,0.00,,,-99.99,,2013-07-04 07:43:00,
2013-07-04 08:11:00,60.0,41.0,-100.00,SSW,208,9.0,12.0,49,0.00,,,-99.99,,2013-07-04 08:11:00,
2013-07-04 08:33:00,61.0,41.0,-100.00,SSW,200,9.0,11.0,48,0.00,,,-99.99,,2013-07-04 08:33:00,
2013-07-04 08:42:00,61.0,41.0,-100.00,SSW,202,9.0,13.0,47,0.00,,,-99.99,,2013-07-04 08:42:00,
2013-07-04 08:52:00,62.0,41.0,-100.00,SSW,203,12.0,17.0,47,0.00,,,-99.99,,2013-07-04 08:52:00,
2013-07-04 09:02:00,62.0,42.0,-100.00,SSW,205,14.0,19.0,48,0.00,,,-99.99,,2013-07-04 09:02:00,
2013-07-04 09:42:00,60.0,43.0,-100.00,SW,216,7.0,11.0,51,0.00,,,-99.99,,2013-07-04 09:42:00,
2013-07-04 10:11:00,61.0,43.0,-100.00,SW,216,10.0,16.0,51,0.00,,,-99.99,,2013-07-04 10:11:00,
2013-07-04 10:33:00,61.0,43.0,-100.00,SW,223,9.0,12.0,53,0.00,,,-99.99,,2013-07-04 10:33:00,
2013-07-04 10:42:00,61.0,43.0,-100.00,SSW,213,10.0,14.0,53,0.00,,,-99.99,,2013-07-04 10:42:00,
2013-07-04 11:11:00,61.0,43.0,-100.00,SSW,208,9.0,14.0,52,0.00,,,-99.99,,2013-07-04 11:11:00,
2013-07-04 11:33:00,61.0,42.0,-100.00,WSW,243,7.0,12.0,51,0.00,,,-99.99,,2013-07-04 11:33:00,
2013-07-04 11:43:00,61.0,42.0,-100.00,SW,229,9.0,12.0,51,0.00,,,-99.99,,2013-07-04 11:43:00,
2013-07-04 12:11:00,58.0,43.0,-100.00,SSW,212,9.0,12.0,57,0.00,,,-99.99,,2013-07-04 12:11:00,
2013-07-04 12:43:00,60.0,43.0,-100.00,SSW,205,7.0,10.0,54,0.00,,,-99.99,,2013-07-04 12:43:00,
2013-07-04 13:43:00,63.0,43.0,-100.00,NW,323,3.0,5.0,48,0.00,,,-99.99,,2013-07-04 13:43:00,
2013-07-04 14:02:00,64.0,43.0,-100.00,NE,35,3.0,6.0,46,0.00,,,-99.99,,2013-07-04 14:02:00,
2013-07-04 14:43:00,65.0,44.0,-100.00,NW,316,4.0,6.0,47,0.00,,,-99.99,,2013-07-04 14:43:00,
2013-07-04 15:23:00,67.0,45.0,-100.00,WNW,289,4.0,7.0,44,0.00,,,-99.99,,2013-07-04 15:23:00,
2013-07-04 15:33:00,68.0,45.0,-100.00,NW,308,3.0,7.0,42,0.00,,,-99.99,,2013-07-04 15:33:00,
2013-07-04 15:43:00,69.0,44.0,-100.00,NW,323,4.0,8.0,41,0.00,,,-99.99,,2013-07-04 15:43:00,
2013-07-04 16:02:00,70.0,45.0,-100.00,NW,318,4.0,11.0,41,0.00,,,-99.99,,2013-07-04 16:02:00,
2013-07-04 16:11:00,70.0,45.0,-100.00,West,267,4.0,9.0,41,0.00,,,-99.99,,2013-07-04 16:11:00,
2013-07-04 16:33:00,70.0,44.0,-100.00,WNW,299,4.0,9.0,39,0.00,,,-99.99,,2013-07-04 16:33:00,
2013-07-04 16:43:00,71.0,43.0,-100.00,West,265,4.0,7.0,36,0.00,,,-99.99,,2013-07-04 16:43:00,
2013-07-04 16:52:00,72.0,44.0,-100.00,NW,309,3.0,9.0,37,0.00,,,-99.99,,2013-07-04 16:52:00,
2013-07-04 17:11:00,73.0,44.0,-100.00,NNW,339,3.0,7.0,35,0.00,,,-99.99,,2013-07-04 17:11:00,
2013-07-04 17:22:00,73.0,43.0,-100.00,NW,313,6.0,11.0,34,0.00,,,-99.99,,2013-07-04 17:22:00,
2013-07-04 17:43:00,74.0,42.0,-100.00,WSW,258,4.0,9.0,32,0.00,,,-99.99,,2013-07-04 17:43:00,
2013-07-04 17:53:00,74.0,41.0,-100.00,West,277,6.0,11.0,31,0.00,,,-99.99,,2013-07-04 17:53:00,
2013-07-04 18:01:00,73.0,41.0,-100.00,West,261,6.0,11.0,32,0.00,,,-99.99,,2013-07-04 18:01:00,
2013-07-04 18:11:00,75.0,36.0,-100.00,NW,320,4.0,12.0,24,0.00,,,-99.99,,2013-07-04 18:11:00,
2013-07-04 18:43:00,76.0,39.0,-100.00,WNW,284,4.0,10.0,26,0.00,,,-99.99,,2013-07-04 18:43:00,
2013-07-04 19:12:00,77.0,39.0,-100.00,ESE,123,4.0,10.0,25,0.00,,,-99.99,,2013-07-04 19:12:00,
2013-07-04 19:22:00,76.0,38.0,-100.00,West,263,4.0,9.0,25,0.00,,,-99.99,,2013-07-04 19:22:00,
2013-07-04 19:43:00,78.0,36.0,-100.00,North,0,6.0,12.0,22,0.00,,,-99.99,,2013-07-04 19:43:00,
2013-07-04 20:01:00,78.0,35.0,-100.00,WNW,302,3.0,9.0,21,0.00,,,-99.99,,2013-07-04 20:01:00,
2013-07-04 20:11:00,76.0,35.0,-100.00,SW,232,3.0,9.0,22,0.00,,,-99.99,,2013-07-04 20:11:00,
2013-07-04 20:22:00,78.0,35.0,-100.00,WSW,240,6.0,11.0,21,0.00,,,-99.99,,2013-07-04 20:22:00,
2013-07-04 20:33:00,79.0,35.0,-100.00,West,263,4.0,11.0,20,0.00,,,-99.99,,2013-07-04 20:33:00,
2013-07-04 20:42:00,79.0,35.0,-100.00,SW,227,6.0,11.0,20,0.00,,,-99.99,,2013-07-04 20:42:00,
2013-07-04 20:53:00,78.0,34.0,-100.00,South,184,4.0,9.0,21,0.00,,,-99.99,,2013-07-04 20:53:00,
2013-07-04 21:01:00,80.0,36.0,-100.00,ENE,65,7.0,11.0,20,0.00,,,-99.99,,2013-07-04 21:01:00,
2013-07-04 21:11:00,80.0,34.0,-100.00,NW,308,6.0,21.0,19,0.00,,,-99.99,,2013-07-04 21:11:00,
2013-07-04 21:43:00,80.0,35.0,-100.00,NW,326,7.0,13.0,19,0.00,,,-99.99,,2013-07-04 21:43:00,
2013-07-04 22:01:00,80.0,35.0,-100.00,NNW,335,6.0,10.0,20,0.00,,,-99.99,,2013-07-04 22:01:00,
2013-07-04 22:33:00,77.0,38.0,-100.00,NE,45,20.0,28.0,24,0.00,,,-99.99,,2013-07-04 22:33:00,
2013-07-04 22:43:00,77.0,37.0,-100.00,ENE,58,13.0,19.0,24,0.00,,,-99.99,,2013-07-04 22:43:00,
2013-07-04 23:01:00,77.0,36.0,-100.00,NE,47,11.0,18.0,23,0.00,,,-99.99,,2013-07-04 23:01:00,
2013-07-04 23:33:00,72.0,41.0,-100.00,SW,232,9.0,15.0,32,0.00,,,-99.99,,2013-07-04 23:33:00,
2013-07-04 23:42:00,69.0,43.0,-100.00,WSW,243,10.0,17.0,39,0.03,,,-99.99,,2013-07-04 23:42:00,
2013-07-04 23:52:00,70.0,42.0,-100.00,SSW,198,9.0,18.0,36,0.00,,,-99.99,,2013-07-04 23:52:00,